Вернуться в каталог

STARLINK-37724

АктивенСвязьSSO
NORAD 69218·PAYLOAD·🇺🇸 United States

Запущен May 26, 2026 с Vandenberg Space Force Base

Loading…

Ближайшие Пролёты (ближайшие 24 часа)

TLE

СвежийSource: CelesTrak SupGP

Эпоха: Sep 15, 2026, 04:25 UTC

1 69218C 26115H   26258.18451389 -.00062155  00000+0 -19300-2 0  2586
2 69218  97.2831 274.3309 0001297  91.2692 285.6732 15.33461479    11

Отслеживайте STARLINK-37724 в реальном времени с AllMySat

Download on the App Store